Location: *
(49.3500°N, 12.6000°E)
Time: 09:56:41
(UTC+00:00)

Cosmos 1937 Rocket - Pass Details

Date: 18 October 2019
Orbit: 747 x 780 km, 74.0° (Epoch: 13 November)

Event Time Altitude Azimuth Distance (km) Brightness Sun altitude
Rises 18:03:50 0° 341° (NNW) 3,210 7.1 -18.6°
Reaches altitude 10° 18:06:27 10° 352° (N) 2,279 6.1 -19.0°
Maximum altitude 18:11:03 31° 55° (NE) 1,286 4.3 -19.7°
Enters shadow 18:11:10 31° 58° (ENE) 1,287 4.3 -19.8°
